ONEWEB-0284 (49002 NORAD) Tracking and Keplerian Element Data

This shows tracking and keplerian element data for the satellite.

Feedback or suggestion? Click here.




ElementValue
Catalog49002
NameONEWEB-0284
Epoch Orbit1389
Epoch Day269.25001157
Epoch Year2021
RAAN211.8888
Inclination87.8954
Eccentricity0.0006982
Argument of Perigee354.0964
Mean Anonmoly276.451
Mean Motion13.45621536
Decay Rate1.4E-07
L11 49002U 21060AM 21269.25001157 .00000014 00000-0 00000+0 0 9999
L22 49002 87.8954 211.8888 0006982 354.0964 276.4510 13.45621536 13892

Live tracking and technical data element details for ONEWEB-0284 (NORAD 49002). ONEWEB-0284 can be tracked NOW for your location showing map with azimuth and elevation plus other details from your city location.

Track the satellite on the map from your city or location and see movement details for azimuth, elevation, latitude, longitude, range, height, and movement on the map or in text.







IsCatalogInMostPopularTable: catalog: 49002, numindb: 23
Update: records affected: 1



GetName: 49002 ONEWEB-0284

Hit Count: updated at: Sun, 26 Sep 2021 15:43:38 GMT